Riverton, WY

5:37 PM MDT on March 24, 2017 (GMT -0600)
Riverton Regional

Weather History for KRIW - February, 2013

Change the Weather History Date:

Thursday, February 7, 2013

  Actual Average Record
Temperature  
Mean Temperature 27 °F 22 °F  
Max Temperature 37 °F 33 °F 59 °F (1996)
Min Temperature 16 °F 11 °F -16 °F (2003)
Degree Days  
Heating Degree Days 38 43  
Month to date heating degree days 232 306  
Since 1 July heating degree days 4653 5021  
Cooling Degree Days 0 0  
Month to date cooling degree days 0 0  
Year to date cooling degree days 0 0  
Moisture  
Dew Point 10 °F    
Average Humidity 54    
Maximum Humidity 68    
Minimum Humidity 39    
Precipitation  
Precipitation 0.00 in 0.01 in 0.11 in (2011)
Month to date precipitation 0.00 0.05  
Year to date precipitation 0.11 0.29  
Snow  
Snow 0.00 in - - ()
Month to date snowfall 0.0  
Since 1 July snowfall 10.0  
Snow Depth 0.00 in    
Sea Level Pressure  
Sea Level Pressure 30.10 in    
Wind  
Wind Speed 6 mph (NW)    
Max Wind Speed 15 mph    
Max Gust Speed 18 mph    
Visibility 10 miles    
Events      
T = Trace of Precipitation, MM = Missing Value Source: NWS Daily Summary

Daily Weather History Graph

Daily Weather History Graph

Search for Another Location

Airport or City:

Trip Planner

Search our weather history database for the weather conditions in past years. The results will help you decide how hot, cold, wet, or windy it might be!

Date:

Astronomy

Feb. 07, 2013 Rise Set
Actual Time 7:21 AM MST 5:34 PM MST
Civil Twilight 6:52 AM MST 6:04 PM MST
Nautical Twilight 6:18 AM MST 6:38 PM MST
Astronomical Twilight 5:45 AM MST 7:11 PM MST
Moon 5:06 AM MST (2/7) 3:00 PM MST (2/7)
Length of Visible Light 11h 12m
Length of Day
10h 13m
Waning Crescent, 8% of the Moon is Illuminated
Feb 7
Waning Crescent
Feb 10
New
Feb 17
First Quarter
Feb 25
Full
Mar 4
Last Quarter

Hourly Weather History & Observations

Time (MST) Temp. Windchill Dew Point Humidity Pressure Visibility Wind Dir Wind Speed Gust Speed Precip Events Conditions
12:53 AM 24.1 °F 12.5 °F 10.9 °F 57% 30.12 in 10.0 mi NW 12.7 mph - N/A   Clear
1:53 AM 24.1 °F 12.0 °F 10.9 °F 57% 30.12 in 10.0 mi NW 13.8 mph - N/A   Clear
2:53 AM 23.0 °F 11.7 °F 10.0 °F 58% 30.15 in 10.0 mi NW 11.5 mph - N/A   Clear
3:53 AM 23.0 °F 18.4 °F 10.0 °F 58% 30.15 in 10.0 mi SSW 3.5 mph - N/A   Clear
4:53 AM 18.0 °F 9.8 °F 8.1 °F 65% 30.17 in 10.0 mi WSW 5.8 mph - N/A   Clear
5:53 AM 17.1 °F 6.6 °F 9.0 °F 71% 30.18 in 10.0 mi SW 8.1 mph - N/A   Clear
6:53 AM 19.9 °F 7.3 °F 8.1 °F 60% 30.16 in 10.0 mi WSW 12.7 mph - N/A   Clear
7:53 AM 19.0 °F - 7.0 °F 59% 30.21 in 10.0 mi Calm Calm - N/A   Clear
8:53 AM 21.0 °F 16.2 °F 12.0 °F 68% 30.20 in 10.0 mi SSW 3.5 mph - N/A   Clear
9:53 AM 28.0 °F 21.7 °F 7.0 °F 41% 30.17 in 10.0 mi South 5.8 mph - N/A   Clear
10:53 AM 30.9 °F - 8.1 °F 38% 30.14 in 10.0 mi Calm Calm - N/A   Clear
11:53 AM 32.0 °F 25.6 °F 10.0 °F 40% 30.14 in 10.0 mi NE 6.9 mph - N/A   Clear
12:53 PM 33.1 °F 26.1 °F 12.9 °F 43% 30.10 in 10.0 mi NE 8.1 mph - N/A   Clear
1:53 PM 34.0 °F 29.8 °F 12.9 °F 42% 30.07 in 10.0 mi NE 4.6 mph - N/A   Clear
2:53 PM 36.0 °F 32.1 °F 14.0 °F 41% 30.04 in 10.0 mi NNE 4.6 mph - N/A   Clear
3:53 PM 36.0 °F 31.1 °F 14.0 °F 41% 30.02 in 10.0 mi East 5.8 mph - N/A   Clear
4:53 PM 34.0 °F 28.8 °F 14.0 °F 44% 30.04 in 10.0 mi ENE 5.8 mph - N/A   Clear
5:53 PM 30.0 °F 26.5 °F 12.9 °F 49% 30.04 in 10.0 mi North 3.5 mph - N/A   Clear
6:53 PM 23.0 °F 14.7 °F 10.9 °F 60% 30.06 in 10.0 mi NNW 6.9 mph - N/A   Clear
7:53 PM 24.1 °F 18.2 °F 8.1 °F 51% 30.06 in 10.0 mi NNW 4.6 mph - N/A   Clear
8:53 PM 27.0 °F - 9.0 °F 47% 30.04 in 10.0 mi Calm Calm - N/A   Clear
9:53 PM 19.9 °F 9.3 °F 9.0 °F 62% 30.03 in 10.0 mi NW 9.2 mph - N/A   Clear
10:53 PM 19.9 °F 9.3 °F 8.1 °F 60% 30.02 in 10.0 mi WNW 9.2 mph - N/A   Clear
11:53 PM 19.0 °F 9.0 °F 8.1 °F 62% 30.01 in 10.0 mi NW 8.1 mph - N/A   Clear